Zurück zum Katalog

STARLINK-34532

AktivKommunikationVLEO
NORAD 64607·PAYLOAD·🇺🇸 United States

Gestartet Jun 25, 2025 von Cape Canaveral Space Force Station

Loading…

Nächste Überflüge (nächste 24 Stunden)

TLE

AktuellSource: CelesTrak SupGP

Epoche: Sep 15, 2026, 03:15 UTC

1 64607C 25137P   26258.13590278 -.00036197  00000+0 -10697-2 0  2589
2 64607  53.1576 182.4695 0001314  82.3143 102.0973 15.34401308    19

Verfolge STARLINK-34532 in Echtzeit mit AllMySat

Download on the App Store